GFSFLT2_prec_precacc24_126.txt.gz
Total_Precipitation_Accumulation
0.00 0.00 0.00 0.00 0.01 0.01 0.02 0.19 0.76 1.37 1.19 0.72 0.36 0.35 0.51 0.29 0.20 0.16 0.13 0.09 0.12 0.16 0.11 0.12 0.07 0.01 0.00 0.00 0.00 0.00 0.01 0.03
0.00 0.00 0.00 0.00 0.01 0.03 0.04 0.14 0.44 0.94 1.24 1.08 0.36 0.39 0.36 0.37 0.21 0.16 0.09 0.04 0.04 0.05 0.10 0.15 0.19 0.13 0.01 0.00 0.00 0.00 0.00 0.04
0.00 0.00 0.00 0.00 0.00 0.01 0.05 0.14 0.36 0.57 0.97 1.70 0.64 0.32 0.37 0.30 0.12 0.09 0.09 0.04 0.03 0.08 0.24 0.16 0.18 0.18 0.07 0.00 0.00 0.00 0.00 0.00
0.00 0.00 0.00 0.00 0.00 0.00 0.02 0.08 0.24 0.66 1.04 1.42 1.24 0.50 0.44 0.26 0.17 0.12 0.14 0.08 0.11 0.33 0.40 0.31 0.15 0.07 0.05 0.00 0.00 0.00 0.00 0.00
0.00 0.00 0.00 0.00 0.00 0.00 0.04 0.04 0.14 0.49 1.06 0.94 1.39 0.61 0.54 0.37 0.27 0.25 0.30 0.24 0.26 0.28 0.20 0.16 0.11 0.02 0.01 0.00 0.00 0.00 0.00 0.00
0.00 0.00 0.00 0.00 0.00 0.00 0.08 0.12 0.40 0.63 0.73 0.90 0.97 0.96 0.40 0.29 0.17 0.22 0.20 0.15 0.17 0.07 0.05 0.14 0.09 0.02 0.00 0.00 0.00 0.00 0.00 0.00
0.00 0.00 0.00 0.00 0.00 0.01 0.06 0.11 0.43 1.08 0.69 0.92 0.60 0.75 0.44 0.25 0.21 0.19 0.15 0.18 0.19 0.09 0.07 0.07 0.04 0.05 0.02 0.00 0.00 0.00 0.00 0.00
0.00 0.00 0.01 0.02 0.01 0.01 0.07 0.12 0.50 1.09 0.81 1.00 0.65 0.41 0.45 0.24 0.21 0.25 0.32 0.33 0.22 0.16 0.12 0.08 0.07 0.19 0.04 0.01 0.00 0.00 0.00 0.00
0.00 0.00 0.01 0.04 0.08 0.02 0.05 0.10 0.24 0.71 1.02 0.88 0.88 0.44 0.40 0.31 0.23 0.21 0.25 0.34 0.49 0.45 0.32 0.17 0.08 0.09 0.04 0.00 0.00 0.00 0.00 0.00
0.00 0.00 0.01 0.01 0.05 0.07 0.04 0.03 0.10 0.40 0.92 0.75 0.72 0.85 0.38 0.40 0.30 0.18 0.19 0.34 0.53 0.55 0.47 0.20 0.13 0.07 0.07 0.02 0.00 0.00 0.00 0.00
0.00 0.00 0.00 0.00 0.00 0.03 0.04 0.05 0.05 0.21 0.67 0.67 0.50 1.09 0.67 0.30 0.32 0.21 0.23 0.16 0.24 0.51 0.57 0.35 0.20 0.10 0.07 0.03 0.00 0.00 0.00 0.00
0.00 0.00 0.00 0.00 0.00 0.01 0.03 0.06 0.07 0.06 0.50 0.44 0.40 0.77 0.93 0.53 0.39 0.34 0.29 0.31 0.24 0.23 0.31 0.25 0.28 0.18 0.07 0.05 0.01 0.00 0.00 0.00
0.00 0.00 0.00 0.00 0.00 0.01 0.02 0.02 0.03 0.05 0.24 0.30 0.26 0.50 0.64 0.86 0.58 0.33 0.27 0.35 0.33 0.32 0.24 0.14 0.14 0.12 0.09 0.09 0.04 0.01 0.00 0.00
0.00 0.00 0.00 0.00 0.00 0.00 0.01 0.03 0.03 0.06 0.12 0.14 0.21 0.41 0.37 0.64 0.71 0.53 0.24 0.27 0.35 0.38 0.41 0.21 0.10 0.17 0.06 0.03 0.05 0.06 0.02 0.00
0.00 0.00 0.00 0.00 0.00 0.00 0.01 0.03 0.07 0.11 0.30 0.32 0.18 0.35 0.37 0.38 0.57 0.66 0.39 0.29 0.36 0.29 0.32 0.21 0.10 0.10 0.09 0.01 0.01 0.02 0.02 0.01
0.00 0.00 0.00 0.00 0.00 0.00 0.00 0.02 0.04 0.07 0.14 0.57 0.26 0.22 0.35 0.33 0.36 0.62 0.57 0.35 0.31 0.27 0.26 0.17 0.08 0.07 0.07 0.03 0.00 0.00 0.00 0.01
0.00 0.00 0.00 0.00 0.00 0.01 0.01 0.02 0.02 0.05 0.20 0.54 0.79 0.47 0.33 0.35 0.36 0.51 0.57 0.42 0.37 0.27 0.30 0.32 0.16 0.06 0.02 0.02 0.00 0.00 0.00 0.00
0.00 0.00 0.00 0.02 0.01 0.01 0.01 0.02 0.02 0.03 0.15 0.40 1.04 1.14 0.68 0.41 0.41 0.48 0.55 0.55 0.41 0.39 0.38 0.29 0.27 0.16 0.06 0.02 0.00 0.01 0.00 0.00
0.00 0.00 0.01 0.02 0.02 0.01 0.03 0.05 0.03 0.03 0.06 0.15 0.44 1.28 1.30 0.71 0.36 0.38 0.57 0.65 0.56 0.44 0.56 0.56 0.31 0.27 0.14 0.05 0.01 0.01 0.00 0.00
0.00 0.01 0.01 0.02 0.02 0.07 0.05 0.03 0.03 0.02 0.04 0.07 0.18 0.39 0.96 0.96 0.66 0.36 0.46 0.71 0.73 0.66 0.62 0.70 0.51 0.37 0.33 0.20 0.11 0.03 0.04 0.03

GFSFLT2_prec_precacc24_132.txt.gz
Total_Precipitation_Accumulation
0.00 0.00 0.00 0.00 0.00 0.00 0.00 0.01 0.03 0.15 0.18 0.24 0.14 0.17 0.35 0.26 0.19 0.16 0.13 0.09 0.12 0.16 0.11 0.13 0.07 0.02 0.00 0.00 0.09 0.01 0.01 0.07
0.00 0.00 0.00 0.00 0.01 0.01 0.01 0.02 0.11 0.09 0.09 0.08 0.04 0.04 0.11 0.22 0.20 0.16 0.09 0.04 0.04 0.05 0.13 0.21 0.24 0.21 0.05 0.02 0.09 0.06 0.03 0.07
0.00 0.00 0.00 0.00 0.00 0.01 0.02 0.02 0.10 0.12 0.06 0.06 0.03 0.02 0.03 0.08 0.11 0.09 0.09 0.04 0.03 0.09 0.29 0.27 0.26 0.24 0.13 0.04 0.07 0.06 0.06 0.01
0.00 0.00 0.00 0.00 0.00 0.00 0.01 0.03 0.11 0.16 0.10 0.10 0.06 0.08 0.07 0.07 0.14 0.14 0.14 0.10 0.15 0.35 0.40 0.32 0.16 0.07 0.06 0.07 0.05 0.01 0.03 0.00
0.00 0.00 0.00 0.00 0.00 0.00 0.01 0.02 0.07 0.21 0.30 0.23 0.15 0.14 0.17 0.17 0.25 0.27 0.30 0.26 0.27 0.29 0.20 0.16 0.11 0.02 0.03 0.08 0.03 0.01 0.00 0.00
0.00 0.00 0.00 0.00 0.00 0.00 0.00 0.02 0.03 0.07 0.21 0.40 0.34 0.26 0.19 0.17 0.16 0.22 0.21 0.15 0.17 0.07 0.05 0.14 0.09 0.02 0.01 0.01 0.01 0.00 0.00 0.00
0.00 0.00 0.00 0.00 0.00 0.00 0.00 0.01 0.02 0.05 0.12 0.25 0.36 0.30 0.26 0.22 0.21 0.20 0.16 0.18 0.19 0.09 0.07 0.07 0.04 0.08 0.04 0.02 0.00 0.00 0.00 0.00
0.00 0.00 0.00 0.00 0.00 0.00 0.00 0.00 0.02 0.08 0.10 0.21 0.43 0.24 0.28 0.22 0.20 0.26 0.35 0.34 0.22 0.16 0.16 0.12 0.25 0.47 0.40 0.20 0.05 0.00 0.00 0.00
0.00 0.00 0.00 0.00 0.00 0.00 0.00 0.00 0.01 0.08 0.11 0.12 0.57 0.28 0.27 0.28 0.23 0.21 0.25 0.35 0.49 0.49 0.41 0.25 0.18 0.19 0.41 0.14 0.03 0.00 0.00 0.00
0.00 0.00 0.00 0.00 0.00 0.00 0.00 0.00 0.02 0.12 0.29 0.15 0.43 0.68 0.23 0.35 0.30 0.18 0.19 0.39 0.60 0.72 0.54 0.24 0.21 0.15 0.21 0.10 0.01 0.00 0.00 0.00
0.00 0.00 0.02 0.04 0.07 0.03 0.02 0.01 0.03 0.10 0.30 0.23 0.23 0.87 0.52 0.26 0.31 0.22 0.22 0.21 0.32 0.55 0.62 0.43 0.28 0.17 0.20 0.16 0.04 0.00 0.00 0.00
0.00 0.01 0.03 0.07 0.08 0.05 0.04 0.03 0.03 0.04 0.42 0.25 0.20 0.66 0.86 0.52 0.39 0.35 0.24 0.36 0.31 0.27 0.31 0.29 0.36 0.32 0.29 0.29 0.10 0.01 0.00 0.00
0.00 0.00 0.00 0.06 0.05 0.06 0.05 0.03 0.03 0.02 0.23 0.28 0.20 0.48 0.71 0.99 0.70 0.42 0.28 0.40 0.41 0.38 0.25 0.15 0.15 0.25 0.41 0.35 0.23 0.07 0.01 0.00
0.00 0.00 0.00 0.00 0.00 0.01 0.03 0.02 0.02 0.01 0.03 0.11 0.21 0.42 0.43 0.74 0.82 0.65 0.30 0.29 0.36 0.40 0.42 0.24 0.11 0.20 0.24 0.16 0.16 0.20 0.08 0.00
0.00 0.00 0.00 0.00 0.00 0.00 0.01 0.03 0.03 0.04 0.04 0.07 0.15 0.35 0.41 0.46 0.69 0.76 0.44 0.31 0.38 0.32 0.34 0.23 0.12 0.12 0.14 0.06 0.04 0.09 0.04 0.02
0.00 0.00 0.00 0.00 0.00 0.00 0.00 0.01 0.03 0.03 0.02 0.04 0.09 0.18 0.38 0.39 0.46 0.74 0.67 0.41 0.36 0.32 0.28 0.18 0.11 0.09 0.11 0.04 0.00 0.00 0.01 0.02
0.00 0.00 0.00 0.00 0.00 0.00 0.01 0.01 0.01 0.02 0.05 0.05 0.11 0.10 0.16 0.34 0.40 0.61 0.66 0.50 0.39 0.30 0.32 0.32 0.16 0.07 0.03 0.03 0.00 0.00 0.00 0.00
0.00 0.00 0.00 0.01 0.01 0.00 0.01 0.01 0.02 0.02 0.03 0.07 0.18 0.34 0.20 0.17 0.36 0.52 0.62 0.59 0.40 0.36 0.34 0.27 0.23 0.17 0.11 0.06 0.01 0.01 0.00 0.00
0.00 0.00 0.01 0.01 0.01 0.01 0.03 0.06 0.04 0.06 0.07 0.07 0.13 0.52 0.61 0.27 0.19 0.32 0.55 0.64 0.50 0.37 0.45 0.48 0.33 0.31 0.21 0.12 0.07 0.04 0.01 0.00
0.00 0.01 0.01 0.01 0.02 0.06 0.05 0.03 0.05 0.05 0.08 0.07 0.11 0.20 0.53 0.49 0.29 0.19 0.34 0.68 0.66 0.58 0.50 0.60 0.56 0.50 0.54 0.39 0.25 0.16 0.09 0.03

GFSFLT2_prec_precacc24_135.txt.gz
Total_Precipitation_Accumulation
0.00 0.00 0.00 0.00 0.00 0.00 0.00 0.00 0.00 0.05 0.10 0.14 0.12 0.06 0.07 0.07 0.12 0.14 0.13 0.08 0.11 0.16 0.11 0.13 0.07 0.02 0.00 0.01 0.10 0.01 0.01 0.08
0.00 0.00 0.00 0.00 0.01 0.01 0.00 0.00 0.00 0.01 0.04 0.04 0.01 0.02 0.04 0.04 0.09 0.14 0.09 0.04 0.04 0.05 0.13 0.21 0.24 0.21 0.06 0.03 0.09 0.08 0.04 0.07
0.00 0.00 0.00 0.00 0.00 0.01 0.01 0.01 0.02 0.00 0.01 0.03 0.02 0.01 0.01 0.01 0.04 0.06 0.08 0.04 0.03 0.09 0.29 0.27 0.26 0.24 0.13 0.04 0.07 0.06 0.07 0.02
0.00 0.00 0.00 0.00 0.00 0.00 0.01 0.03 0.04 0.03 0.02 0.02 0.03 0.07 0.06 0.03 0.04 0.09 0.12 0.10 0.15 0.35 0.40 0.32 0.16 0.08 0.07 0.07 0.05 0.01 0.03 0.01
0.00 0.00 0.00 0.00 0.00 0.00 0.01 0.02 0.04 0.08 0.09 0.08 0.08 0.11 0.13 0.13 0.19 0.21 0.27 0.26 0.27 0.29 0.20 0.16 0.11 0.03 0.04 0.14 0.04 0.01 0.01 0.00
0.00 0.00 0.00 0.00 0.00 0.00 0.00 0.02 0.03 0.06 0.11 0.23 0.24 0.14 0.13 0.07 0.13 0.21 0.20 0.15 0.17 0.07 0.05 0.14 0.10 0.02 0.01 0.02 0.02 0.02 0.03 0.08
0.00 0.00 0.00 0.00 0.00 0.00 0.00 0.01 0.01 0.02 0.08 0.17 0.28 0.19 0.13 0.13 0.18 0.19 0.16 0.18 0.19 0.09 0.07 0.07 0.04 0.08 0.09 0.03 0.01 0.01 0.02 0.06
0.00 0.00 0.00 0.00 0.00 0.00 0.00 0.00 0.00 0.02 0.04 0.07 0.18 0.19 0.18 0.16 0.18 0.26 0.35 0.34 0.22 0.16 0.16 0.13 0.25 0.47 0.45 0.26 0.09 0.01 0.02 0.02
0.00 0.00 0.00 0.00 0.00 0.00 0.00 0.00 0.00 0.02 0.02 0.04 0.10 0.16 0.20 0.25 0.22 0.21 0.25 0.35 0.49 0.49 0.42 0.26 0.18 0.20 0.43 0.17 0.04 0.01 0.03 0.03
0.00 0.00 0.00 0.00 0.00 0.00 0.00 0.00 0.00 0.04 0.03 0.06 0.13 0.24 0.17 0.33 0.29 0.18 0.19 0.39 0.61 0.72 0.54 0.24 0.21 0.15 0.21 0.11 0.01 0.01 0.01 0.02
0.00 0.00 0.02 0.04 0.07 0.03 0.02 0.01 0.02 0.03 0.04 0.09 0.12 0.51 0.47 0.24 0.30 0.22 0.22 0.21 0.34 0.57 0.63 0.45 0.29 0.17 0.20 0.16 0.04 0.01 0.03 0.02
0.00 0.01 0.03 0.07 0.10 0.13 0.13 0.09 0.06 0.03 0.06 0.07 0.12 0.57 0.82 0.49 0.38 0.34 0.25 0.36 0.32 0.31 0.39 0.34 0.37 0.32 0.29 0.29 0.13 0.04 0.05 0.03
0.00 0.00 0.00 0.07 0.07 0.10 0.08 0.05 0.04 0.03 0.09 0.08 0.09 0.39 0.67 0.98 0.73 0.47 0.34 0.41 0.44 0.48 0.33 0.19 0.16 0.26 0.42 0.36 0.24 0.08 0.04 0.05
0.00 0.00 0.00 0.01 0.02 0.02 0.04 0.02 0.02 0.02 0.07 0.06 0.09 0.32 0.36 0.73 0.83 0.73 0.46 0.49 0.47 0.48 0.43 0.24 0.11 0.20 0.24 0.16 0.18 0.22 0.09 0.01
0.00 0.00 0.00 0.00 0.01 0.04 0.02 0.01 0.02 0.02 0.03 0.05 0.11 0.29 0.37 0.45 0.70 0.81 0.59 0.51 0.54 0.40 0.36 0.25 0.14 0.13 0.14 0.06 0.04 0.12 0.07 0.05
0.00 0.00 0.00 0.00 0.00 0.01 0.01 0.01 0.01 0.01 0.01 0.04 0.09 0.20 0.41 0.41 0.49 0.76 0.70 0.48 0.44 0.37 0.31 0.24 0.14 0.11 0.12 0.04 0.00 0.00 0.01 0.03
0.00 0.00 0.00 0.00 0.00 0.00 0.01 0.02 0.01 0.00 0.01 0.04 0.08 0.08 0.18 0.36 0.41 0.63 0.67 0.52 0.44 0.39 0.40 0.38 0.18 0.09 0.04 0.04 0.01 0.00 0.00 0.00
0.00 0.00 0.00 0.01 0.01 0.00 0.01 0.01 0.02 0.02 0.02 0.06 0.13 0.12 0.10 0.19 0.38 0.54 0.60 0.59 0.42 0.44 0.45 0.35 0.29 0.19 0.11 0.07 0.02 0.02 0.00 0.00
0.00 0.00 0.01 0.01 0.01 0.01 0.03 0.06 0.04 0.06 0.07 0.06 0.12 0.18 0.14 0.14 0.19 0.32 0.53 0.60 0.49 0.42 0.47 0.49 0.33 0.28 0.18 0.13 0.08 0.05 0.01 0.00
0.00 0.01 0.01 0.01 0.02 0.06 0.05 0.03 0.05 0.05 0.08 0.06 0.05 0.09 0.16 0.22 0.16 0.15 0.31 0.60 0.59 0.52 0.43 0.48 0.45 0.40 0.40 0.33 0.22 0.16 0.10 0.04

GFSFLT2_prec_precacc24_141.txt.gz
Total_Precipitation_Accumulation
0.00 0.00 0.00 0.00 0.00 0.00 0.00 0.00 0.00 0.02 0.07 0.10 0.07 0.04 0.05 0.03 0.00 0.00 0.00 0.02 0.06 0.09 0.08 0.13 0.07 0.05 0.05 0.04 0.12 0.03 0.03 0.10
0.00 0.00 0.00 0.00 0.00 0.00 0.00 0.00 0.00 0.01 0.04 0.03 0.00 0.02 0.02 0.01 0.00 0.00 0.00 0.00 0.00 0.02 0.12 0.21 0.25 0.26 0.08 0.06 0.17 0.16 0.06 0.11
0.00 0.00 0.00 0.00 0.00 0.00 0.01 0.00 0.00 0.00 0.01 0.02 0.02 0.01 0.00 0.00 0.00 0.00 0.00 0.00 0.00 0.08 0.28 0.28 0.28 0.25 0.15 0.15 0.16 0.10 0.09 0.05
0.00 0.00 0.00 0.00 0.00 0.00 0.01 0.01 0.01 0.00 0.01 0.01 0.03 0.07 0.05 0.02 0.01 0.05 0.04 0.07 0.14 0.35 0.40 0.33 0.18 0.09 0.11 0.21 0.11 0.02 0.05 0.01
0.00 0.00 0.00 0.00 0.00 0.00 0.01 0.02 0.02 0.01 0.01 0.03 0.07 0.10 0.12 0.12 0.13 0.07 0.18 0.23 0.27 0.28 0.19 0.16 0.13 0.05 0.12 0.21 0.07 0.01 0.03 0.05
0.00 0.00 0.00 0.00 0.00 0.00 0.00 0.02 0.02 0.02 0.02 0.07 0.14 0.11 0.11 0.07 0.07 0.08 0.12 0.15 0.17 0.07 0.05 0.14 0.13 0.02 0.03 0.02 0.03 0.03 0.09 0.21
0.00 0.00 0.00 0.00 0.00 0.00 0.00 0.01 0.01 0.01 0.01 0.04 0.11 0.06 0.05 0.08 0.10 0.08 0.10 0.18 0.19 0.09 0.07 0.07 0.05 0.09 0.09 0.03 0.01 0.01 0.03 0.13
0.00 0.00 0.00 0.00 0.00 0.00 0.00 0.00 0.00 0.01 0.01 0.01 0.05 0.08 0.05 0.05 0.07 0.19 0.31 0.31 0.22 0.16 0.16 0.13 0.25 0.47 0.45 0.26 0.09 0.02 0.03 0.05
0.00 0.00 0.00 0.00 0.00 0.00 0.00 0.00 0.00 0.01 0.01 0.01 0.03 0.07 0.08 0.06 0.06 0.16 0.22 0.33 0.49 0.49 0.42 0.26 0.18 0.20 0.43 0.17 0.04 0.01 0.03 0.04
0.00 0.00 0.00 0.00 0.00 0.00 0.00 0.00 0.00 0.04 0.02 0.01 0.02 0.04 0.05 0.12 0.08 0.07 0.17 0.37 0.61 0.72 0.54 0.25 0.21 0.15 0.21 0.11 0.01 0.01 0.02 0.03
0.00 0.00 0.02 0.04 0.07 0.03 0.02 0.01 0.02 0.03 0.03 0.02 0.02 0.03 0.05 0.06 0.05 0.08 0.16 0.18 0.34 0.57 0.63 0.51 0.33 0.18 0.20 0.16 0.04 0.01 0.03 0.04
0.00 0.01 0.03 0.07 0.10 0.13 0.13 0.09 0.07 0.04 0.05 0.02 0.03 0.05 0.08 0.10 0.09 0.13 0.16 0.31 0.32 0.31 0.40 0.43 0.49 0.35 0.30 0.30 0.13 0.06 0.08 0.06
0.00 0.00 0.00 0.07 0.07 0.10 0.07 0.04 0.04 0.06 0.11 0.10 0.06 0.06 0.16 0.23 0.38 0.34 0.25 0.35 0.44 0.52 0.39 0.24 0.25 0.32 0.44 0.38 0.26 0.09 0.06 0.08
0.00 0.00 0.00 0.01 0.02 0.02 0.04 0.04 0.08 0.18 0.23 0.14 0.05 0.08 0.12 0.19 0.43 0.58 0.41 0.47 0.49 0.60 0.64 0.42 0.19 0.32 0.29 0.17 0.20 0.24 0.09 0.02
0.00 0.00 0.00 0.00 0.02 0.08 0.10 0.16 0.24 0.27 0.20 0.22 0.22 0.28 0.25 0.26 0.41 0.63 0.56 0.57 0.64 0.60 0.61 0.45 0.26 0.23 0.19 0.08 0.05 0.12 0.07 0.05
0.00 0.00 0.01 0.02 0.06 0.09 0.11 0.05 0.05 0.06 0.08 0.12 0.25 0.33 0.45 0.49 0.46 0.63 0.71 0.55 0.50 0.49 0.59 0.50 0.34 0.19 0.19 0.06 0.00 0.00 0.01 0.03
0.00 0.00 0.01 0.03 0.05 0.09 0.12 0.15 0.16 0.08 0.07 0.05 0.09 0.11 0.20 0.26 0.42 0.59 0.67 0.59 0.48 0.45 0.50 0.50 0.30 0.15 0.06 0.08 0.02 0.00 0.00 0.00
0.00 0.02 0.04 0.04 0.07 0.11 0.11 0.11 0.11 0.07 0.11 0.19 0.22 0.13 0.10 0.11 0.18 0.39 0.56 0.61 0.44 0.48 0.54 0.45 0.46 0.33 0.19 0.09 0.04 0.03 0.01 0.00
0.04 0.06 0.08 0.14 0.16 0.15 0.16 0.15 0.12 0.18 0.17 0.14 0.19 0.21 0.14 0.16 0.19 0.26 0.50 0.62 0.52 0.45 0.52 0.54 0.43 0.41 0.31 0.27 0.16 0.09 0.04 0.00
0.16 0.14 0.12 0.13 0.12 0.12 0.11 0.05 0.05 0.08 0.20 0.12 0.05 0.06 0.09 0.13 0.16 0.16 0.33 0.62 0.64 0.56 0.45 0.51 0.48 0.46 0.44 0.41 0.30 0.23 0.15 0.04

GFSFLT2_prec_precacc24_147.txt.gz
Total_Precipitation_Accumulation
0.00 0.00 0.00 0.00 0.00 0.00 0.00 0.00 0.00 0.00 0.00 0.01 0.01 0.03 0.05 0.03 0.00 0.00 0.00 0.00 0.00 0.00 0.03 0.09 0.06 0.05 0.06 0.05 0.12 0.03 0.05 0.10
0.00 0.00 0.00 0.00 0.00 0.00 0.00 0.00 0.00 0.00 0.00 0.00 0.00 0.01 0.02 0.01 0.00 0.00 0.00 0.00 0.00 0.00 0.08 0.16 0.22 0.25 0.08 0.08 0.22 0.17 0.10 0.15
0.00 0.00 0.00 0.00 0.00 0.00 0.00 0.00 0.00 0.00 0.00 0.01 0.00 0.00 0.00 0.00 0.00 0.00 0.00 0.00 0.00 0.08 0.19 0.25 0.24 0.24 0.17 0.20 0.21 0.12 0.10 0.06
0.00 0.00 0.00 0.00 0.00 0.00 0.00 0.00 0.00 0.00 0.00 0.00 0.01 0.01 0.01 0.01 0.00 0.03 0.01 0.05 0.09 0.12 0.09 0.14 0.13 0.08 0.12 0.22 0.12 0.04 0.07 0.03
0.00 0.00 0.00 0.00 0.00 0.00 0.00 0.00 0.00 0.00 0.00 0.00 0.00 0.01 0.03 0.06 0.05 0.02 0.05 0.12 0.10 0.04 0.02 0.02 0.08 0.05 0.11 0.21 0.08 0.04 0.06 0.06
0.00 0.00 0.00 0.00 0.00 0.00 0.00 0.00 0.00 0.00 0.00 0.00 0.01 0.01 0.03 0.03 0.01 0.03 0.04 0.02 0.05 0.02 0.00 0.06 0.09 0.02 0.03 0.02 0.03 0.03 0.09 0.22
0.00 0.00 0.00 0.00 0.00 0.00 0.00 0.00 0.00 0.00 0.00 0.00 0.01 0.00 0.00 0.00 0.01 0.04 0.05 0.07 0.07 0.01 0.02 0.01 0.04 0.08 0.08 0.03 0.01 0.01 0.05 0.14
0.00 0.00 0.00 0.00 0.00 0.00 0.00 0.00 0.00 0.00 0.00 0.00 0.00 0.00 0.01 0.00 0.00 0.03 0.11 0.09 0.04 0.04 0.11 0.09 0.24 0.47 0.44 0.26 0.09 0.02 0.04 0.06
0.00 0.00 0.00 0.00 0.00 0.00 0.00 0.00 0.00 0.00 0.00 0.00 0.01 0.01 0.02 0.01 0.00 0.01 0.06 0.05 0.08 0.17 0.27 0.20 0.17 0.19 0.41 0.17 0.04 0.01 0.05 0.06
0.00 0.00 0.00 0.00 0.00 0.00 0.00 0.00 0.00 0.00 0.00 0.00 0.01 0.01 0.01 0.02 0.01 0.00 0.03 0.13 0.22 0.32 0.41 0.21 0.19 0.14 0.17 0.09 0.01 0.01 0.03 0.03
0.00 0.00 0.02 0.04 0.07 0.03 0.01 0.00 0.00 0.00 0.01 0.01 0.01 0.02 0.02 0.02 0.01 0.01 0.02 0.07 0.15 0.30 0.47 0.47 0.32 0.16 0.17 0.15 0.04 0.02 0.04 0.04
0.00 0.01 0.03 0.07 0.10 0.13 0.13 0.09 0.05 0.02 0.02 0.02 0.02 0.04 0.06 0.07 0.04 0.03 0.03 0.08 0.12 0.13 0.28 0.39 0.50 0.36 0.28 0.29 0.14 0.07 0.09 0.08
0.00 0.00 0.00 0.07 0.07 0.09 0.07 0.04 0.04 0.05 0.10 0.10 0.06 0.05 0.15 0.20 0.19 0.18 0.12 0.10 0.15 0.26 0.28 0.22 0.24 0.31 0.41 0.38 0.27 0.09 0.07 0.09
0.00 0.00 0.00 0.01 0.02 0.02 0.04 0.04 0.08 0.18 0.23 0.14 0.05 0.07 0.11 0.16 0.17 0.23 0.25 0.31 0.22 0.31 0.38 0.39 0.20 0.34 0.30 0.22 0.21 0.23 0.10 0.02
0.00 0.00 0.00 0.00 0.02 0.07 0.10 0.16 0.23 0.26 0.19 0.22 0.22 0.27 0.25 0.24 0.24 0.24 0.29 0.38 0.38 0.41 0.40 0.41 0.31 0.30 0.23 0.10 0.05 0.12 0.08 0.05
0.00 0.00 0.01 0.02 0.06 0.09 0.11 0.05 0.05 0.06 0.08 0.12 0.25 0.32 0.44 0.52 0.49 0.50 0.52 0.54 0.50 0.45 0.54 0.56 0.50 0.32 0.35 0.15 0.05 0.02 0.05 0.06
0.00 0.00 0.01 0.03 0.05 0.09 0.13 0.15 0.17 0.09 0.08 0.06 0.09 0.11 0.21 0.26 0.37 0.50 0.59 0.47 0.34 0.41 0.47 0.56 0.44 0.32 0.22 0.13 0.05 0.05 0.05 0.03
0.01 0.03 0.04 0.04 0.07 0.11 0.13 0.15 0.18 0.13 0.15 0.23 0.30 0.26 0.24 0.32 0.35 0.32 0.32 0.31 0.26 0.36 0.43 0.43 0.49 0.39 0.25 0.18 0.09 0.06 0.03 0.03
0.06 0.08 0.09 0.15 0.17 0.17 0.21 0.30 0.32 0.33 0.28 0.27 0.41 0.62 0.68 0.84 0.76 0.63 0.52 0.58 0.58 0.47 0.35 0.41 0.45 0.46 0.36 0.31 0.20 0.14 0.13 0.10
0.22 0.19 0.16 0.17 0.18 0.18 0.22 0.19 0.23 0.22 0.29 0.22 0.19 0.21 0.30 0.51 0.66 0.67 0.80 0.88 0.81 0.68 0.28 0.33 0.44 0.46 0.48 0.46 0.34 0.28 0.24 0.17

GFSFLT2_prec_precacc24_150.txt.gz
Total_Precipitation_Accumulation
0.00 0.00 0.00 0.00 0.00 0.00 0.00 0.00 0.00 0.00 0.00 0.00 0.00 0.00 0.02 0.01 0.00 0.00 0.00 0.00 0.00 0.00 0.00 0.01 0.00 0.04 0.06 0.05 0.12 0.03 0.08 0.20
0.00 0.00 0.00 0.00 0.00 0.00 0.00 0.00 0.00 0.00 0.00 0.00 0.00 0.00 0.00 0.00 0.00 0.00 0.00 0.00 0.00 0.00 0.03 0.06 0.07 0.13 0.06 0.08 0.22 0.17 0.13 0.25
0.00 0.00 0.00 0.00 0.00 0.00 0.00 0.00 0.00 0.00 0.00 0.01 0.00 0.00 0.00 0.00 0.00 0.00 0.00 0.00 0.00 0.01 0.05 0.12 0.09 0.07 0.10 0.20 0.21 0.12 0.16 0.09
0.00 0.00 0.00 0.00 0.00 0.00 0.00 0.00 0.00 0.00 0.00 0.00 0.00 0.00 0.00 0.00 0.00 0.02 0.00 0.01 0.04 0.02 0.00 0.01 0.03 0.02 0.07 0.22 0.12 0.06 0.09 0.05
0.00 0.00 0.00 0.00 0.00 0.00 0.00 0.00 0.00 0.00 0.00 0.00 0.00 0.00 0.00 0.00 0.00 0.01 0.00 0.02 0.01 0.01 0.00 0.00 0.02 0.03 0.10 0.21 0.08 0.04 0.07 0.09
0.00 0.00 0.00 0.00 0.00 0.00 0.00 0.00 0.00 0.00 0.00 0.00 0.00 0.01 0.01 0.00 0.00 0.00 0.00 0.00 0.00 0.00 0.00 0.00 0.03 0.00 0.02 0.02 0.03 0.03 0.09 0.25
0.00 0.00 0.00 0.00 0.00 0.00 0.00 0.00 0.00 0.00 0.00 0.00 0.01 0.00 0.00 0.00 0.00 0.00 0.00 0.00 0.00 0.00 0.00 0.00 0.01 0.03 0.07 0.03 0.01 0.01 0.05 0.16
0.00 0.00 0.00 0.00 0.00 0.00 0.00 0.00 0.00 0.00 0.00 0.00 0.00 0.00 0.00 0.00 0.00 0.01 0.03 0.00 0.00 0.01 0.04 0.05 0.18 0.28 0.41 0.26 0.09 0.02 0.04 0.06
0.00 0.00 0.00 0.00 0.00 0.00 0.00 0.00 0.00 0.00 0.00 0.00 0.00 0.00 0.01 0.00 0.00 0.00 0.01 0.00 0.01 0.04 0.10 0.09 0.10 0.11 0.39 0.17 0.04 0.01 0.05 0.06
0.00 0.00 0.00 0.00 0.02 0.04 0.01 0.00 0.00 0.00 0.00 0.00 0.00 0.01 0.00 0.01 0.00 0.00 0.00 0.05 0.08 0.16 0.07 0.05 0.08 0.08 0.14 0.08 0.01 0.01 0.03 0.03
0.00 0.00 0.02 0.05 0.09 0.12 0.17 0.04 0.00 0.00 0.00 0.00 0.01 0.01 0.02 0.01 0.01 0.01 0.00 0.05 0.11 0.06 0.05 0.16 0.13 0.08 0.13 0.13 0.04 0.02 0.04 0.04
0.00 0.01 0.03 0.07 0.10 0.14 0.17 0.22 0.08 0.02 0.02 0.01 0.01 0.03 0.04 0.05 0.04 0.02 0.02 0.09 0.11 0.09 0.10 0.17 0.22 0.18 0.22 0.26 0.13 0.07 0.09 0.08
0.00 0.00 0.00 0.07 0.07 0.09 0.07 0.04 0.04 0.06 0.10 0.09 0.05 0.05 0.16 0.18 0.19 0.16 0.12 0.10 0.15 0.25 0.17 0.12 0.12 0.21 0.37 0.39 0.29 0.10 0.08 0.09
0.00 0.00 0.00 0.01 0.02 0.02 0.04 0.03 0.08 0.18 0.23 0.14 0.04 0.06 0.21 0.20 0.16 0.22 0.25 0.30 0.22 0.31 0.29 0.24 0.13 0.21 0.27 0.25 0.22 0.21 0.08 0.02
0.00 0.00 0.00 0.00 0.02 0.07 0.10 0.15 0.23 0.26 0.19 0.21 0.22 0.26 0.25 0.36 0.25 0.26 0.29 0.39 0.37 0.40 0.37 0.31 0.23 0.24 0.18 0.12 0.05 0.12 0.07 0.05
0.00 0.00 0.01 0.02 0.06 0.09 0.11 0.04 0.05 0.06 0.08 0.12 0.25 0.32 0.44 0.55 0.56 0.53 0.53 0.56 0.54 0.48 0.53 0.48 0.45 0.30 0.37 0.22 0.12 0.09 0.10 0.09
0.00 0.00 0.01 0.03 0.05 0.09 0.12 0.15 0.17 0.09 0.08 0.05 0.09 0.11 0.21 0.28 0.46 0.54 0.61 0.57 0.46 0.59 0.52 0.50 0.48 0.47 0.40 0.33 0.20 0.17 0.21 0.22
0.01 0.03 0.04 0.04 0.07 0.11 0.12 0.15 0.17 0.12 0.15 0.23 0.30 0.26 0.25 0.35 0.38 0.37 0.43 0.46 0.42 0.50 0.47 0.40 0.59 0.55 0.42 0.29 0.14 0.08 0.07 0.11
0.06 0.08 0.09 0.15 0.17 0.17 0.20 0.29 0.31 0.30 0.27 0.27 0.42 0.66 0.75 0.88 0.80 0.71 0.62 0.77 0.89 0.90 0.65 0.53 0.61 0.61 0.48 0.37 0.23 0.16 0.17 0.20
0.22 0.19 0.16 0.17 0.18 0.17 0.22 0.18 0.22 0.21 0.27 0.24 0.21 0.26 0.36 0.62 0.75 0.75 0.94 1.16 1.17 1.32 1.14 0.85 0.85 0.62 0.54 0.47 0.35 0.30 0.25 0.23